Year,Month,Day,Hour,Minute,Value (Times are PST for insolation in W/m^2)
2008,04,09,00,00,0.00
2008,04,09,00,01,0.00
2008,04,09,00,02,0.00
2008,04,09,00,03,0.00
2008,04,09,00,04,0.00
2008,04,09,00,05,0.00
2008,04,09,00,06,0.00
2008,04,09,00,07,0.00
2008,04,09,00,08,0.00
2008,04,09,00,09,0.00
2008,04,09,00,10,0.00
2008,04,09,00,11,0.00
2008,04,09,00,12,0.00
2008,04,09,00,13,0.00
2008,04,09,00,14,0.00
2008,04,09,00,15,0.00
2008,04,09,00,16,0.00
2008,04,09,00,17,0.00
2008,04,09,00,18,0.00
2008,04,09,00,19,0.00
2008,04,09,00,20,0.00
2008,04,09,00,21,0.00
2008,04,09,00,22,0.00
2008,04,09,00,23,0.00
2008,04,09,00,24,0.00
2008,04,09,00,25,0.00
2008,04,09,00,26,0.00
2008,04,09,00,27,0.00
2008,04,09,00,28,0.00
2008,04,09,00,29,0.00
2008,04,09,00,30,0.00
2008,04,09,00,31,0.00
2008,04,09,00,32,0.00
2008,04,09,00,33,0.00
2008,04,09,00,34,0.00
2008,04,09,00,35,0.00
2008,04,09,00,36,0.00
2008,04,09,00,37,0.00
2008,04,09,00,38,0.00
2008,04,09,00,39,0.00
2008,04,09,00,40,0.00
2008,04,09,00,41,0.00
2008,04,09,00,42,0.00
2008,04,09,00,43,0.00
2008,04,09,00,44,0.00
2008,04,09,00,45,0.00
2008,04,09,00,46,0.00
2008,04,09,00,47,0.00
2008,04,09,00,48,0.00
2008,04,09,00,49,0.00
2008,04,09,00,50,0.00
2008,04,09,00,51,0.00
2008,04,09,00,52,0.00
2008,04,09,00,53,0.00
2008,04,09,00,54,0.00
2008,04,09,00,55,0.00
2008,04,09,00,56,0.00
2008,04,09,00,57,0.00
2008,04,09,00,58,0.00
2008,04,09,00,59,0.00
2008,04,09,01,00,0.00
2008,04,09,01,01,0.00
2008,04,09,01,02,0.00
2008,04,09,01,03,0.00
2008,04,09,01,04,0.00
2008,04,09,01,05,0.00
2008,04,09,01,06,0.00
2008,04,09,01,07,0.00
2008,04,09,01,08,0.00
2008,04,09,01,09,0.00
2008,04,09,01,10,0.00
2008,04,09,01,11,0.00
2008,04,09,01,12,0.00
2008,04,09,01,13,0.00
2008,04,09,01,14,0.00
2008,04,09,01,15,0.00
2008,04,09,01,16,0.00
2008,04,09,01,17,0.00
2008,04,09,01,18,0.00
2008,04,09,01,19,0.00
2008,04,09,01,20,0.00
2008,04,09,01,21,0.00
2008,04,09,01,22,0.00
2008,04,09,01,23,0.00
2008,04,09,01,24,0.00
2008,04,09,01,25,0.00
2008,04,09,01,26,0.00
2008,04,09,01,27,0.00
2008,04,09,01,28,0.00
2008,04,09,01,29,0.00
2008,04,09,01,30,0.00
2008,04,09,01,31,0.00
2008,04,09,01,32,0.00
2008,04,09,01,33,0.00
2008,04,09,01,34,0.00
2008,04,09,01,35,0.00
2008,04,09,01,36,0.00
2008,04,09,01,37,0.00
2008,04,09,01,38,0.00
2008,04,09,01,39,0.00
2008,04,09,01,40,0.00
2008,04,09,01,41,0.00
2008,04,09,01,42,0.00
2008,04,09,01,43,0.00
2008,04,09,01,44,0.00
2008,04,09,01,45,0.00
2008,04,09,01,46,0.00
2008,04,09,01,47,0.00
2008,04,09,01,48,0.00
2008,04,09,01,49,0.00
2008,04,09,01,50,0.00
2008,04,09,01,51,0.00
2008,04,09,01,52,0.00
2008,04,09,01,53,0.00
2008,04,09,01,54,0.00
2008,04,09,01,55,0.00
2008,04,09,01,56,0.00
2008,04,09,01,57,0.00
2008,04,09,01,58,0.00
2008,04,09,01,59,0.00
2008,04,09,02,00,0.00
2008,04,09,02,01,0.00
2008,04,09,02,02,0.00
2008,04,09,02,03,0.00
2008,04,09,02,04,0.00
2008,04,09,02,05,0.00
2008,04,09,02,06,0.00
2008,04,09,02,07,0.00
2008,04,09,02,08,0.00
2008,04,09,02,09,0.00
2008,04,09,02,10,0.00
2008,04,09,02,11,0.00
2008,04,09,02,12,0.00
2008,04,09,02,13,0.00
2008,04,09,02,14,0.00
2008,04,09,02,15,0.00
2008,04,09,02,16,0.00
2008,04,09,02,17,0.00
2008,04,09,02,18,0.00
2008,04,09,02,19,0.00
2008,04,09,02,20,0.00
2008,04,09,02,21,0.00
2008,04,09,02,22,0.00
2008,04,09,02,23,0.00
2008,04,09,02,24,0.00
2008,04,09,02,25,0.00
2008,04,09,02,26,0.00
2008,04,09,02,27,0.00
2008,04,09,02,28,0.00
2008,04,09,02,29,0.00
2008,04,09,02,30,0.00
2008,04,09,02,31,0.00
2008,04,09,02,32,0.00
2008,04,09,02,33,0.00
2008,04,09,02,34,0.00
2008,04,09,02,35,0.00
2008,04,09,02,36,0.00
2008,04,09,02,37,0.00
2008,04,09,02,38,0.00
2008,04,09,02,39,0.00
2008,04,09,02,40,0.00
2008,04,09,02,41,0.00
2008,04,09,02,42,0.00
2008,04,09,02,43,0.00
2008,04,09,02,44,0.00
2008,04,09,02,45,0.00
2008,04,09,02,46,0.00
2008,04,09,02,47,0.00
2008,04,09,02,48,0.00
2008,04,09,02,49,0.00
2008,04,09,02,50,0.00
2008,04,09,02,51,0.00
2008,04,09,02,52,0.00
2008,04,09,02,53,0.00
2008,04,09,02,54,0.00
2008,04,09,02,55,0.00
2008,04,09,02,56,0.00
2008,04,09,02,57,0.00
2008,04,09,02,58,0.00
2008,04,09,02,59,0.00
2008,04,09,03,00,0.00
2008,04,09,03,01,0.00
2008,04,09,03,02,0.00
2008,04,09,03,03,0.00
2008,04,09,03,04,0.00
2008,04,09,03,05,0.00
2008,04,09,03,06,0.00
2008,04,09,03,07,0.00
2008,04,09,03,08,0.00
2008,04,09,03,09,0.00
2008,04,09,03,10,0.00
2008,04,09,03,11,0.00
2008,04,09,03,12,0.00
2008,04,09,03,13,0.00
2008,04,09,03,14,0.00
2008,04,09,03,15,0.00
2008,04,09,03,16,0.00
2008,04,09,03,17,0.00
2008,04,09,03,18,0.00
2008,04,09,03,19,0.00
2008,04,09,03,20,0.00
2008,04,09,03,21,0.00
2008,04,09,03,22,0.00
2008,04,09,03,23,0.00
2008,04,09,03,24,0.00
2008,04,09,03,25,0.00
2008,04,09,03,26,0.00
2008,04,09,03,27,0.00
2008,04,09,03,28,0.00
2008,04,09,03,29,0.00
2008,04,09,03,30,0.00
2008,04,09,03,31,0.00
2008,04,09,03,32,0.00
2008,04,09,03,33,0.00
2008,04,09,03,34,0.00
2008,04,09,03,35,0.00
2008,04,09,03,36,0.00
2008,04,09,03,37,0.00
2008,04,09,03,38,0.00
2008,04,09,03,39,0.00
2008,04,09,03,40,0.00
2008,04,09,03,41,0.00
2008,04,09,03,42,0.00
2008,04,09,03,43,0.00
2008,04,09,03,44,0.00
2008,04,09,03,45,0.00
2008,04,09,03,46,0.00
2008,04,09,03,47,0.00
2008,04,09,03,48,0.00
2008,04,09,03,49,0.00
2008,04,09,03,50,0.00
2008,04,09,03,51,0.00
2008,04,09,03,52,0.00
2008,04,09,03,53,0.00
2008,04,09,03,54,0.00
2008,04,09,03,55,0.00
2008,04,09,03,56,0.00
2008,04,09,03,57,0.00
2008,04,09,03,58,0.00
2008,04,09,03,59,0.00
2008,04,09,04,00,0.00
2008,04,09,04,01,0.00
2008,04,09,04,02,0.00
2008,04,09,04,03,0.00
2008,04,09,04,05,0.00
2008,04,09,04,06,0.00
2008,04,09,04,07,0.00
2008,04,09,04,08,0.00
2008,04,09,04,09,0.00
2008,04,09,04,10,0.00
2008,04,09,04,11,0.00
2008,04,09,04,12,0.00
2008,04,09,04,13,0.00
2008,04,09,04,14,0.00
2008,04,09,04,15,0.00
2008,04,09,04,16,0.00
2008,04,09,04,17,0.00
2008,04,09,04,18,0.00
2008,04,09,04,19,0.00
2008,04,09,04,20,0.00
2008,04,09,04,21,0.00
2008,04,09,04,22,0.00
2008,04,09,04,23,0.00
2008,04,09,04,24,0.00
2008,04,09,04,25,0.00
2008,04,09,04,26,0.00
2008,04,09,04,27,0.00
2008,04,09,04,28,0.00
2008,04,09,04,29,0.00
2008,04,09,04,30,0.00
2008,04,09,04,31,0.00
2008,04,09,04,32,0.00
2008,04,09,04,33,0.00
2008,04,09,04,34,0.00
2008,04,09,04,35,0.00
2008,04,09,04,36,0.00
2008,04,09,04,37,0.00
2008,04,09,04,38,0.00
2008,04,09,04,39,0.00
2008,04,09,04,40,0.00
2008,04,09,04,41,0.00
2008,04,09,04,42,0.00
2008,04,09,04,43,0.00
2008,04,09,04,44,0.00
2008,04,09,04,45,0.00
2008,04,09,04,46,0.00
2008,04,09,04,47,0.00
2008,04,09,04,48,0.00
2008,04,09,04,49,0.00
2008,04,09,04,50,0.00
2008,04,09,04,51,0.00
2008,04,09,04,52,0.00
2008,04,09,04,53,0.00
2008,04,09,04,54,0.00
2008,04,09,04,55,0.00
2008,04,09,04,56,0.00
2008,04,09,04,57,0.00
2008,04,09,04,58,0.00
2008,04,09,04,59,0.00
2008,04,09,05,00,0.00
2008,04,09,05,01,0.00
2008,04,09,05,02,0.00
2008,04,09,05,03,0.00
2008,04,09,05,04,0.00
2008,04,09,05,05,0.00
2008,04,09,05,06,0.00
2008,04,09,05,07,0.00
2008,04,09,05,08,0.00
2008,04,09,05,09,0.00
2008,04,09,05,10,0.00
2008,04,09,05,11,0.00
2008,04,09,05,12,0.00
2008,04,09,05,13,0.00
2008,04,09,05,14,0.00
2008,04,09,05,15,0.00
2008,04,09,05,16,0.00
2008,04,09,05,17,0.00
2008,04,09,05,18,0.00
2008,04,09,05,19,0.00
2008,04,09,05,20,0.00
2008,04,09,05,21,0.00
2008,04,09,05,22,0.00
2008,04,09,05,23,0.00
2008,04,09,05,24,0.00
2008,04,09,05,25,0.00
2008,04,09,05,26,0.00
2008,04,09,05,27,0.00
2008,04,09,05,28,0.00
2008,04,09,05,29,0.00
2008,04,09,05,30,0.00
2008,04,09,05,31,0.00
2008,04,09,05,32,0.00
2008,04,09,05,33,0.00
2008,04,09,05,34,0.00
2008,04,09,05,35,0.00
2008,04,09,05,36,0.00
2008,04,09,05,37,0.00
2008,04,09,05,38,0.00
2008,04,09,05,39,0.00
2008,04,09,05,40,0.00
2008,04,09,05,41,0.00
2008,04,09,05,42,0.00
2008,04,09,05,43,0.00
2008,04,09,05,44,0.00
2008,04,09,05,45,0.00
2008,04,09,05,46,0.00
2008,04,09,05,47,0.00
2008,04,09,05,48,0.00
2008,04,09,05,49,0.00
2008,04,09,05,50,0.00
2008,04,09,05,51,0.00
2008,04,09,05,52,0.00
2008,04,09,05,53,0.00
2008,04,09,05,54,0.00
2008,04,09,05,55,0.00
2008,04,09,05,56,0.00
2008,04,09,05,57,0.00
2008,04,09,05,58,0.00
2008,04,09,05,59,0.00
2008,04,09,06,00,0.00
2008,04,09,06,01,0.00
2008,04,09,06,02,0.00
2008,04,09,06,03,0.00
2008,04,09,06,04,0.00
2008,04,09,06,05,0.00
2008,04,09,06,06,0.00
2008,04,09,06,07,0.00
2008,04,09,06,08,0.00
2008,04,09,06,09,0.00
2008,04,09,06,10,0.00
2008,04,09,06,11,0.00
2008,04,09,06,12,0.00
2008,04,09,06,13,0.00
2008,04,09,06,14,0.00
2008,04,09,06,15,0.00
2008,04,09,06,16,0.00
2008,04,09,06,17,0.00
2008,04,09,06,18,0.00
2008,04,09,06,19,0.00
2008,04,09,06,20,0.00
2008,04,09,06,21,0.00
2008,04,09,06,22,0.00
2008,04,09,06,23,0.00
2008,04,09,06,24,0.00
2008,04,09,06,25,0.00
2008,04,09,06,26,0.00
2008,04,09,06,27,0.00
2008,04,09,06,28,0.00
2008,04,09,06,29,0.00
2008,04,09,06,30,0.00
2008,04,09,06,31,0.00
2008,04,09,06,32,0.00
2008,04,09,06,33,0.00
2008,04,09,06,34,0.00
2008,04,09,06,35,0.00
2008,04,09,06,36,0.00
2008,04,09,06,37,0.00
2008,04,09,06,38,1.90
2008,04,09,06,39,5.00
2008,04,09,06,40,5.00
2008,04,09,06,41,5.90
2008,04,09,06,42,7.00
2008,04,09,06,43,7.00
2008,04,09,06,44,8.30
2008,04,09,06,45,10.40
2008,04,09,06,46,11.60
2008,04,09,06,47,12.00
2008,04,09,06,48,13.80
2008,04,09,06,49,14.00
2008,04,09,06,50,14.00
2008,04,09,06,51,16.00
2008,04,09,06,52,18.00
2008,04,09,06,53,18.00
2008,04,09,06,54,18.10
2008,04,09,06,55,19.00
2008,04,09,06,56,19.30
2008,04,09,06,57,21.00
2008,04,09,06,58,21.00
2008,04,09,06,59,21.00
2008,04,09,07,00,21.60
2008,04,09,07,01,23.00
2008,04,09,07,02,23.00
2008,04,09,07,03,24.00
2008,04,09,07,04,25.00
2008,04,09,07,05,26.70
2008,04,09,07,06,28.00
2008,04,09,07,07,29.30
2008,04,09,07,08,30.00
2008,04,09,07,09,30.00
2008,04,09,07,10,30.00
2008,04,09,07,11,31.60
2008,04,09,07,12,32.80
2008,04,09,07,13,34.90
2008,04,09,07,14,37.00
2008,04,09,07,15,39.00
2008,04,09,07,16,39.00
2008,04,09,07,17,40.10
2008,04,09,07,18,42.00
2008,04,09,07,19,42.20
2008,04,09,07,20,44.00
2008,04,09,07,21,43.60
2008,04,09,07,22,42.00
2008,04,09,07,23,41.40
2008,04,09,07,24,39.70
2008,04,09,07,25,39.40
2008,04,09,07,26,40.00
2008,04,09,07,27,40.00
2008,04,09,07,28,43.50
2008,04,09,07,29,44.10
2008,04,09,07,30,42.00
2008,04,09,07,31,42.00
2008,04,09,07,32,42.00
2008,04,09,07,33,45.30
2008,04,09,07,34,48.20
2008,04,09,07,35,50.90
2008,04,09,07,36,52.90
2008,04,09,07,37,53.00
2008,04,09,07,38,55.70
2008,04,09,07,39,59.80
2008,04,09,07,40,63.20
2008,04,09,07,41,65.00
2008,04,09,07,42,65.00
2008,04,09,07,43,65.00
2008,04,09,07,44,65.00
2008,04,09,07,45,65.50
2008,04,09,07,46,67.70
2008,04,09,07,47,69.40
2008,04,09,07,48,70.00
2008,04,09,07,49,70.90
2008,04,09,07,50,73.10
2008,04,09,07,51,75.20
2008,04,09,07,52,77.50
2008,04,09,07,53,77.20
2008,04,09,07,54,76.00
2008,04,09,07,55,76.00
2008,04,09,07,56,76.00
2008,04,09,07,57,76.80
2008,04,09,07,58,76.10
2008,04,09,07,59,78.80
2008,04,09,08,00,82.40
2008,04,09,08,01,81.20
2008,04,09,08,02,84.00
2008,04,09,08,03,91.60
2008,04,09,08,04,103.30
2008,04,09,08,05,116.10
2008,04,09,08,06,139.40
2008,04,09,08,07,156.40
2008,04,09,08,08,150.80
2008,04,09,08,09,137.90
2008,04,09,08,10,143.30
2008,04,09,08,11,114.80
2008,04,09,08,12,117.70
2008,04,09,08,13,121.50
2008,04,09,08,14,124.20
2008,04,09,08,15,124.00
2008,04,09,08,16,121.70
2008,04,09,08,17,118.80
2008,04,09,08,18,116.40
2008,04,09,08,19,116.00
2008,04,09,08,20,116.00
2008,04,09,08,21,119.60
2008,04,09,08,22,122.80
2008,04,09,08,23,127.00
2008,04,09,08,24,132.00
2008,04,09,08,25,142.30
2008,04,09,08,26,147.70
2008,04,09,08,27,141.90
2008,04,09,08,28,143.60
2008,04,09,08,29,166.20
2008,04,09,08,30,199.00
2008,04,09,08,31,199.00
2008,04,09,08,32,199.00
2008,04,09,08,33,249.10
2008,04,09,08,34,337.60
2008,04,09,08,35,329.50
2008,04,09,08,36,327.00
2008,04,09,08,37,315.80
2008,04,09,08,38,302.70
2008,04,09,08,39,296.60
2008,04,09,08,40,294.30
2008,04,09,08,41,294.00
2008,04,09,08,42,294.80
2008,04,09,08,43,295.00
2008,04,09,08,44,295.00
2008,04,09,08,45,295.00
2008,04,09,08,46,297.00
2008,04,09,08,47,299.00
2008,04,09,08,48,300.90
2008,04,09,08,49,302.20
2008,04,09,08,50,306.20
2008,04,09,08,51,309.30
2008,04,09,08,52,311.90
2008,04,09,08,53,315.20
2008,04,09,08,54,318.10
2008,04,09,08,55,323.00
2008,04,09,08,56,323.00
2008,04,09,08,57,295.60
2008,04,09,08,58,226.50
2008,04,09,08,59,202.00
2008,04,09,09,00,255.50
2008,04,09,09,01,309.00
2008,04,09,09,02,333.70
2008,04,09,09,03,346.00
2008,04,09,09,04,172.60
2008,04,09,09,05,123.00
2008,04,09,09,06,123.00
2008,04,09,09,07,123.00
2008,04,09,09,08,249.90
2008,04,09,09,09,257.00
2008,04,09,09,10,446.00
2008,04,09,09,11,454.60
2008,04,09,09,12,444.60
2008,04,09,09,13,248.00
2008,04,09,09,14,283.70
2008,04,09,09,15,465.60
2008,04,09,09,16,483.30
2008,04,09,09,17,480.00
2008,04,09,09,18,445.00
2008,04,09,09,19,456.60
2008,04,09,09,20,478.90
2008,04,09,09,21,480.00
2008,04,09,09,22,444.50
2008,04,09,09,23,401.00
2008,04,09,09,24,274.50
2008,04,09,09,25,167.00
2008,04,09,09,26,162.80
2008,04,09,09,27,153.40
2008,04,09,09,28,158.50
2008,04,09,09,29,183.10
2008,04,09,09,30,221.50
2008,04,09,09,31,188.70
2008,04,09,09,32,281.00
2008,04,09,09,33,320.60
2008,04,09,09,34,271.00
2008,04,09,09,35,366.20
2008,04,09,09,36,450.00
2008,04,09,09,37,480.90
2008,04,09,09,38,467.90
2008,04,09,09,39,455.00
2008,04,09,09,40,457.10
2008,04,09,09,41,439.70
2008,04,09,09,42,429.30
2008,04,09,09,43,367.30
2008,04,09,09,44,374.50
2008,04,09,09,45,410.90
2008,04,09,09,46,461.20
2008,04,09,09,47,489.70
2008,04,09,09,48,444.70
2008,04,09,09,49,420.00
2008,04,09,09,50,226.30
2008,04,09,09,51,171.80
2008,04,09,09,52,189.80
2008,04,09,09,53,210.50
2008,04,09,09,54,222.40
2008,04,09,09,55,223.00
2008,04,09,09,56,223.00
2008,04,09,09,57,517.00
2008,04,09,09,58,517.00
2008,04,09,09,59,488.30
2008,04,09,10,00,244.00
2008,04,09,10,01,244.00
2008,04,09,10,02,244.00
2008,04,09,10,03,244.00
2008,04,09,10,04,244.00
2008,04,09,10,05,214.10
2008,04,09,10,06,166.10
2008,04,09,10,07,165.90
2008,04,09,10,08,167.00
2008,04,09,10,09,182.60
2008,04,09,10,10,195.00
2008,04,09,10,11,208.80
2008,04,09,10,12,197.80
2008,04,09,10,13,185.40
2008,04,09,10,14,191.40
2008,04,09,10,15,195.00
2008,04,09,10,16,211.80
2008,04,09,10,17,203.20
2008,04,09,10,18,213.00
2008,04,09,10,19,243.00
2008,04,09,10,20,243.00
2008,04,09,10,21,264.20
2008,04,09,10,22,668.00
2008,04,09,10,23,628.70
2008,04,09,10,24,432.00
2008,04,09,10,25,469.40
2008,04,09,10,26,630.80
2008,04,09,10,27,663.00
2008,04,09,10,28,657.80
2008,04,09,10,29,656.80
2008,04,09,10,30,652.00
2008,04,09,10,31,649.50
2008,04,09,10,32,645.30
2008,04,09,10,33,641.00
2008,04,09,10,34,641.30
2008,04,09,10,35,642.00
2008,04,09,10,36,642.00
2008,04,09,10,37,642.00
2008,04,09,10,38,630.40
2008,04,09,10,39,622.80
2008,04,09,10,40,635.20
2008,04,09,10,41,649.00
2008,04,09,10,42,649.00
2008,04,09,10,43,645.00
2008,04,09,10,44,649.30
2008,04,09,10,45,653.80
2008,04,09,10,46,651.60
2008,04,09,10,47,647.50
2008,04,09,10,48,641.50
2008,04,09,10,49,641.60
2008,04,09,10,50,646.70
2008,04,09,10,51,652.90
2008,04,09,10,52,653.40
2008,04,09,10,53,642.00
2008,04,09,10,54,643.90
2008,04,09,10,55,624.80
2008,04,09,10,56,590.30
2008,04,09,10,57,556.70
2008,04,09,10,58,567.10
2008,04,09,10,59,582.00
2008,04,09,11,00,545.30
2008,04,09,11,01,530.00
2008,04,09,11,02,522.40
2008,04,09,11,03,474.00
2008,04,09,11,04,534.00
2008,04,09,11,05,540.30
2008,04,09,11,06,541.00
2008,04,09,11,07,507.90
2008,04,09,11,08,498.00
2008,04,09,11,09,445.70
2008,04,09,11,10,480.30
2008,04,09,11,11,471.80
2008,04,09,11,12,509.60
2008,04,09,11,13,475.00
2008,04,09,11,14,459.80
2008,04,09,11,15,456.20
2008,04,09,11,16,440.00
2008,04,09,11,17,425.00
2008,04,09,11,18,416.30
2008,04,09,11,19,414.30
2008,04,09,11,20,415.70
2008,04,09,11,21,413.60
2008,04,09,11,22,416.80
2008,04,09,11,23,418.00
2008,04,09,11,24,418.00
2008,04,09,11,25,424.20
2008,04,09,11,26,429.00
2008,04,09,11,27,417.00
2008,04,09,11,28,405.20
2008,04,09,11,29,399.20
2008,04,09,11,30,397.40
2008,04,09,11,31,382.80
2008,04,09,11,32,364.50
2008,04,09,11,33,355.40
2008,04,09,11,34,346.20
2008,04,09,11,35,338.80
2008,04,09,11,36,353.00
2008,04,09,11,37,356.00
2008,04,09,11,38,362.00
2008,04,09,11,39,422.00
2008,04,09,11,40,448.10
2008,04,09,11,41,431.50
2008,04,09,11,42,433.60
2008,04,09,11,43,425.00
2008,04,09,11,44,513.80
2008,04,09,11,45,548.00
2008,04,09,11,46,542.20
2008,04,09,11,47,577.00
2008,04,09,11,48,597.00
2008,04,09,11,49,598.00
2008,04,09,11,50,604.30
2008,04,09,11,51,605.00
2008,04,09,11,52,616.40
2008,04,09,11,53,634.90
2008,04,09,11,54,610.30
2008,04,09,11,55,594.40
2008,04,09,11,56,575.60
2008,04,09,11,57,548.90
2008,04,09,11,58,539.00
2008,04,09,11,59,519.10
2008,04,09,12,00,515.30
2008,04,09,12,01,525.20
2008,04,09,12,02,521.40
2008,04,09,12,03,504.00
2008,04,09,12,04,506.40
2008,04,09,12,05,516.20
2008,04,09,12,06,517.00
2008,04,09,12,07,522.80
2008,04,09,12,08,518.80
2008,04,09,12,09,482.80
2008,04,09,12,10,434.00
2008,04,09,12,11,410.10
2008,04,09,12,12,409.90
2008,04,09,12,13,422.00
2008,04,09,12,14,441.00
2008,04,09,12,15,456.30
2008,04,09,12,16,477.60
2008,04,09,12,17,473.40
2008,04,09,12,18,496.80
2008,04,09,12,19,505.50
2008,04,09,12,20,530.20
2008,04,09,12,21,561.30
2008,04,09,12,22,557.00
2008,04,09,12,23,570.20
2008,04,09,12,24,596.30
2008,04,09,12,25,594.50
2008,04,09,12,26,596.20
2008,04,09,12,27,609.00
2008,04,09,12,28,615.40
2008,04,09,12,29,601.70
2008,04,09,12,30,603.60
2008,04,09,12,31,616.60
2008,04,09,12,32,590.70
2008,04,09,12,33,546.20
2008,04,09,12,34,514.60
2008,04,09,12,35,508.00
2008,04,09,12,36,519.00
2008,04,09,12,37,506.00
2008,04,09,12,38,503.10
2008,04,09,12,39,499.90
2008,04,09,12,40,480.50
2008,04,09,12,41,466.00
2008,04,09,12,42,460.00
2008,04,09,12,43,435.10
2008,04,09,12,44,422.20
2008,04,09,12,45,413.30
2008,04,09,12,46,408.70
2008,04,09,12,47,407.80
2008,04,09,12,48,403.50
2008,04,09,12,49,391.00
2008,04,09,12,50,373.30
2008,04,09,12,51,365.20
2008,04,09,12,52,376.20
2008,04,09,12,53,370.70
2008,04,09,12,54,378.40
2008,04,09,12,55,392.50
2008,04,09,12,56,392.40
2008,04,09,12,57,383.20
2008,04,09,12,58,380.10
2008,04,09,12,59,378.30
2008,04,09,13,00,401.50
2008,04,09,13,01,411.00
2008,04,09,13,02,413.90
2008,04,09,13,03,401.00
2008,04,09,13,04,383.80
2008,04,09,13,05,378.50
2008,04,09,13,06,381.50
2008,04,09,13,07,386.20
2008,04,09,13,08,395.40
2008,04,09,13,09,408.70
2008,04,09,13,10,431.40
2008,04,09,13,11,445.00
2008,04,09,13,12,437.20
2008,04,09,13,13,466.00
2008,04,09,13,14,528.20
2008,04,09,13,15,483.30
2008,04,09,13,16,443.50
2008,04,09,13,17,434.00
2008,04,09,13,18,480.20
2008,04,09,13,19,471.10
2008,04,09,13,20,492.90
2008,04,09,13,21,496.00
2008,04,09,13,22,496.00
2008,04,09,13,23,533.00
2008,04,09,13,24,561.50
2008,04,09,13,25,532.20
2008,04,09,13,26,496.40
2008,04,09,13,27,489.70
2008,04,09,13,28,486.70
2008,04,09,13,29,516.40
2008,04,09,13,30,515.00
2008,04,09,13,31,543.00
2008,04,09,13,32,599.00
2008,04,09,13,33,692.30
2008,04,09,13,34,773.50
2008,04,09,13,35,773.60
2008,04,09,13,36,802.00
2008,04,09,13,37,720.20
2008,04,09,13,38,663.00
2008,04,09,13,39,793.80
2008,04,09,13,40,881.00
2008,04,09,13,41,881.00
2008,04,09,13,42,881.00
2008,04,09,13,43,881.00
2008,04,09,13,44,881.00
2008,04,09,13,45,750.70
2008,04,09,13,46,694.00
2008,04,09,13,47,694.00
2008,04,09,13,48,604.50
2008,04,09,13,49,579.50
2008,04,09,13,50,610.50
2008,04,09,13,51,520.90
2008,04,09,13,52,494.20
2008,04,09,13,53,447.50
2008,04,09,13,54,462.00
2008,04,09,13,55,441.70
2008,04,09,13,56,404.90
2008,04,09,13,57,423.50
2008,04,09,13,58,425.40
2008,04,09,13,59,429.70
2008,04,09,14,00,461.30
2008,04,09,14,01,473.00
2008,04,09,14,02,473.00
2008,04,09,14,03,494.70
2008,04,09,14,04,497.30
2008,04,09,14,05,500.10
2008,04,09,14,06,513.80
2008,04,09,14,07,569.90
2008,04,09,14,08,564.00
2008,04,09,14,09,552.00
2008,04,09,14,10,519.00
2008,04,09,14,11,617.80
2008,04,09,14,12,633.00
2008,04,09,14,13,649.90
2008,04,09,14,14,646.70
2008,04,09,14,15,581.60
2008,04,09,14,16,541.00
2008,04,09,14,17,538.90
2008,04,09,14,18,478.60
2008,04,09,14,19,476.00
2008,04,09,14,20,525.50
2008,04,09,14,21,560.00
2008,04,09,14,22,548.00
2008,04,09,14,23,687.90
2008,04,09,14,24,777.00
2008,04,09,14,25,777.00
2008,04,09,14,26,777.00
2008,04,09,14,27,532.00
2008,04,09,14,28,377.00
2008,04,09,14,29,403.20
2008,04,09,14,30,408.00
2008,04,09,14,31,408.00
2008,04,09,14,32,413.00
2008,04,09,14,33,468.20
2008,04,09,14,34,450.60
2008,04,09,14,35,507.40
2008,04,09,14,36,571.30
2008,04,09,14,37,633.00
2008,04,09,14,38,633.00
2008,04,09,14,39,646.10
2008,04,09,14,40,676.00
2008,04,09,14,41,703.40
2008,04,09,14,42,753.20
2008,04,09,14,43,749.50
2008,04,09,14,44,729.50
2008,04,09,14,45,708.20
2008,04,09,14,46,685.30
2008,04,09,14,47,683.50
2008,04,09,14,48,662.30
2008,04,09,14,49,651.00
2008,04,09,14,50,624.50
2008,04,09,14,51,561.20
2008,04,09,14,52,577.30
2008,04,09,14,53,538.40
2008,04,09,14,54,515.00
2008,04,09,14,55,533.90
2008,04,09,14,56,457.00
2008,04,09,14,57,403.10
2008,04,09,14,58,400.20
2008,04,09,14,59,438.20
2008,04,09,15,00,455.00
2008,04,09,15,01,431.10
2008,04,09,15,02,392.10
2008,04,09,15,03,376.00
2008,04,09,15,04,380.00
2008,04,09,15,05,392.00
2008,04,09,15,06,420.00
2008,04,09,15,07,431.80
2008,04,09,15,08,427.00
2008,04,09,15,09,408.80
2008,04,09,15,10,394.00
2008,04,09,15,11,382.40
2008,04,09,15,12,367.60
2008,04,09,15,13,366.50
2008,04,09,15,14,343.70
2008,04,09,15,15,350.60
2008,04,09,15,16,366.20
2008,04,09,15,17,373.00
2008,04,09,15,18,378.00
2008,04,09,15,19,386.60
2008,04,09,15,20,365.90
2008,04,09,15,21,361.40
2008,04,09,15,22,339.30
2008,04,09,15,23,330.90
2008,04,09,15,24,334.00
2008,04,09,15,25,330.30
2008,04,09,15,26,319.00
2008,04,09,15,27,307.70
2008,04,09,15,28,297.10
2008,04,09,15,29,290.00
2008,04,09,15,30,276.00
2008,04,09,15,31,253.60
2008,04,09,15,32,242.90
2008,04,09,15,33,243.00
2008,04,09,15,34,251.80
2008,04,09,15,35,269.00
2008,04,09,15,36,290.70
2008,04,09,15,37,310.30
2008,04,09,15,38,317.40
2008,04,09,15,39,324.00
2008,04,09,15,40,322.00
2008,04,09,15,41,322.00
2008,04,09,15,42,322.90
2008,04,09,15,43,339.10
2008,04,09,15,44,360.10
2008,04,09,15,45,386.20
2008,04,09,15,46,388.00
2008,04,09,15,47,382.10
2008,04,09,15,48,407.70
2008,04,09,15,49,420.00
2008,04,09,15,50,406.40
2008,04,09,15,51,394.30
2008,04,09,15,52,420.00
2008,04,09,15,53,444.60
2008,04,09,15,54,468.20
2008,04,09,15,55,483.40
2008,04,09,15,56,463.80
2008,04,09,15,57,460.40
2008,04,09,15,58,462.10
2008,04,09,15,59,448.60
2008,04,09,16,00,491.00
2008,04,09,16,01,490.90
2008,04,09,16,02,455.00
2008,04,09,16,03,475.70
2008,04,09,16,04,482.00
2008,04,09,16,05,489.60
2008,04,09,16,06,436.00
2008,04,09,16,07,402.00
2008,04,09,16,08,449.20
2008,04,09,16,09,437.90
2008,04,09,16,10,388.50
2008,04,09,16,11,336.30
2008,04,09,16,12,373.00
2008,04,09,16,13,380.60
2008,04,09,16,14,366.00
2008,04,09,16,15,350.40
2008,04,09,16,16,364.20
2008,04,09,16,17,387.10
2008,04,09,16,18,400.80
2008,04,09,16,19,417.00
2008,04,09,16,20,422.60
2008,04,09,16,21,440.70
2008,04,09,16,22,454.60
2008,04,09,16,23,467.60
2008,04,09,16,24,481.80
2008,04,09,16,25,483.10
2008,04,09,16,26,477.00
2008,04,09,16,27,418.00
2008,04,09,16,28,388.50
2008,04,09,16,29,387.80
2008,04,09,16,30,401.30
2008,04,09,16,31,384.30
2008,04,09,16,32,397.00
2008,04,09,16,33,380.20
2008,04,09,16,34,366.70
2008,04,09,16,35,363.70
2008,04,09,16,36,386.80
2008,04,09,16,37,387.10
2008,04,09,16,38,355.00
2008,04,09,16,39,306.40
2008,04,09,16,40,298.50
2008,04,09,16,41,309.00
2008,04,09,16,42,321.90
2008,04,09,16,43,332.20
2008,04,09,16,44,330.90
2008,04,09,16,45,332.90
2008,04,09,16,46,310.00
2008,04,09,16,47,272.70
2008,04,09,16,48,352.10
2008,04,09,16,49,360.00
2008,04,09,16,50,373.00
2008,04,09,16,51,374.00
2008,04,09,16,52,378.70
2008,04,09,16,53,390.40
2008,04,09,16,54,392.50
2008,04,09,16,55,383.90
2008,04,09,16,56,378.10
2008,04,09,16,57,361.10
2008,04,09,16,58,324.90
2008,04,09,16,59,334.00
2008,04,09,17,00,364.30
2008,04,09,17,01,362.80
2008,04,09,17,02,363.90
2008,04,09,17,03,364.90
2008,04,09,17,04,367.00
2008,04,09,17,05,367.00
2008,04,09,17,06,219.70
2008,04,09,17,07,156.80
2008,04,09,17,08,153.30
2008,04,09,17,09,157.20
2008,04,09,17,10,158.00
2008,04,09,17,11,170.30
2008,04,09,17,12,178.00
2008,04,09,17,13,178.90